Modesto, CA

5:23 AM PDT on April 23, 2018 (GMT -0700)
Modesto City-County-Sham

Weather History for KMOD - March, 2014

Change the Weather History Date:

Thursday, March 20, 2014

  Actual Average Record
Temperature  
Mean Temperature 65 °F -  
Max Temperature 79 °F 69 °F 89 °F (1960)
Min Temperature 51 °F 47 °F 34 °F (1987)
Degree Days  
Heating Degree Days 0 7  
Month to date heating degree days 96 163  
Since 1 July heating degree days 1794 1931  
Cooling Degree Days 0 0  
Month to date cooling degree days 0 0  
Year to date cooling degree days 0 0  
Growing Degree Days 15 (Base 50)    
Moisture  
Dew Point 42 °F    
Average Humidity 50    
Maximum Humidity 77    
Minimum Humidity 23    
Precipitation  
Precipitation 0.00 in 0.06 in 0.84 in (1983)
Month to date precipitation 0.60 1.47  
Year to date precipitation 3.52 6.46  
Since 1 July precipitation 5.01  
Snow  
Snow 0.00 in - - ()
Month to date snowfall 0.0  
Since 1 July snowfall 0.0  
Snow Depth 0.00 in    
Sea Level Pressure  
Sea Level Pressure 29.98 in    
Wind  
Wind Speed 3 mph (NW)    
Max Wind Speed 14 mph    
Max Gust Speed 16 mph    
Visibility 10 miles    
Events      
T = Trace of Precipitation, MM = Missing Value Source: NWS Daily Summary

Daily Weather History Graph

Daily Weather History Graph

Search for Another Location

Airport or City:

Astronomy

Mar. 20, 2014 Rise Set
Actual Time 7:07 AM PDT 7:15 PM PDT
Civil Twilight 6:41 AM PDT 7:41 PM PDT
Nautical Twilight 6:10 AM PDT 8:12 PM PDT
Astronomical Twilight 5:39 AM PDT 8:43 PM PDT
Moon 11:35 PM PDT (3/20) 9:21 AM PDT (3/20)
Length of Visible Light 13h 00m
Length of Day
12h 08m
Waning Gibbous, 83% of the Moon is Illuminated
Mar 20
Waning Gibbous
Mar 23
Last Quarter
Mar 30
New
Apr 7
First Quarter
Apr 15
Full

Hourly Weather History & Observations

Time (PDT) Temp. Dew Point Humidity Pressure Visibility Wind Dir Wind Speed Gust Speed Precip Events Conditions
12:53 AM 53.1 °F 44.1 °F 71% 30.04 in 10.0 mi Calm Calm - N/A   Clear
1:53 AM 54.0 °F 44.1 °F 69% 30.04 in 10.0 mi Calm Calm - N/A   Clear
2:53 AM 55.9 °F 43.0 °F 62% 30.04 in 10.0 mi Calm Calm - N/A   Clear
3:53 AM 52.0 °F 45.0 °F 77% 30.02 in 10.0 mi Calm Calm - N/A   Clear
4:53 AM 53.1 °F 44.1 °F 71% 30.02 in 10.0 mi Calm Calm - N/A   Clear
5:53 AM 53.1 °F 43.0 °F 69% 30.03 in 10.0 mi Calm Calm - N/A   Clear
6:53 AM 53.1 °F 43.0 °F 69% 30.02 in 10.0 mi Calm Calm - N/A   Clear
7:53 AM 54.0 °F 43.0 °F 66% 30.03 in 10.0 mi Calm Calm - N/A   Clear
8:53 AM 57.9 °F 45.0 °F 62% 30.04 in 10.0 mi North 3.5 mph - N/A   Clear
9:53 AM 64.0 °F 44.1 °F 48% 30.04 in 10.0 mi NW 6.9 mph - N/A   Clear
10:53 AM 68.0 °F 42.1 °F 39% 30.03 in 10.0 mi NW 6.9 mph - N/A   Clear
11:53 AM 70.0 °F 42.1 °F 36% 30.02 in 10.0 mi Variable 5.8 mph - N/A   Clear
12:53 PM 73.9 °F 39.0 °F 28% 30.00 in 10.0 mi NNW 8.1 mph - N/A   Clear
1:53 PM 77.0 °F 37.9 °F 24% 29.97 in 10.0 mi NW 9.2 mph - N/A   Clear
2:53 PM 78.1 °F 39.0 °F 25% 29.94 in 10.0 mi NW 6.9 mph - N/A   Clear
3:53 PM 78.1 °F 37.9 °F 24% 29.92 in 10.0 mi Variable 4.6 mph - N/A   Clear
4:53 PM 78.1 °F 37.9 °F 24% 29.90 in 10.0 mi North 8.1 mph - N/A   Clear
5:53 PM 75.0 °F 37.0 °F 25% 29.90 in 10.0 mi NW 12.7 mph - N/A   Clear
6:53 PM 72.0 °F 37.9 °F 29% 29.90 in 10.0 mi NNW 9.2 mph - N/A   Clear
7:53 PM 68.0 °F 39.9 °F 36% 29.90 in 10.0 mi WNW 8.1 mph - N/A   Clear
8:53 PM 69.1 °F 39.9 °F 35% 29.91 in 10.0 mi NW 3.5 mph - N/A   Clear
9:53 PM 66.0 °F 44.1 °F 45% 29.92 in 10.0 mi WNW 6.9 mph - N/A   Clear
10:53 PM 63.0 °F 45.0 °F 52% 29.92 in 10.0 mi NNW 6.9 mph - N/A   Clear
11:53 PM 63.0 °F 44.1 °F 50% 29.92 in 10.0 mi North 4.6 mph - N/A   Clear